Tracking 19177 objects as of 24-May-2018
HD Live streaming from Space Station
objects crossing your sky now

COSMOS 2087

Track COSMOS 2087 now!
COSMOS 2087 is classified as:


NORAD ID: 20707
Int'l Code: 1990-064A
Perigee: 4,338.5 km
Apogee: 36,079.6 km
Inclination: 69.0 °
Period: 718.8 minutes
Semi major axis: 26580 km
RCS: 8.1788 m2 (large)
Launch date: July 25, 1990
Source: Commonwealth of Independent States (former USSR) (CIS)
Launch site: PLESETSK MISSILE AND SPACE COMPLEX (PKMTR)
aabbcc
Your satellite tracking list
Your tracking list is empty




NASA's NSSDC Master Catalog

Two Line Element Set (TLE):
1 20707U 90064A   18143.91335612 -.00000948 +00000-0 +00000-0 0  9994
2 20707 068.9667 000.7374 5970859 107.9773 277.5406 02.00340967203768
Source of the keplerian elements: AFSPC